Vero Beach, FL

10:37 AM EDT on April 23, 2017 (GMT -0400)
Vero Beach Municipal

Weather History for KVRB - August, 2013

Change the Weather History Date:

Friday, August 23, 2013

  Actual Average Record
Temperature  
Mean Temperature 81 °F 82 °F  
Max Temperature 88 °F 90 °F 96 °F (1980)
Min Temperature 74 °F 74 °F 70 °F (1984)
Degree Days  
Heating Degree Days 0 0  
Month to date heating degree days 0 0  
Since 1 June heating degree days 0 0  
Since 1 July heating degree days 0 0  
Cooling Degree Days 16 16  
Month to date cooling degree days 394 390  
Year to date cooling degree days 2282 2170  
Since 1 June cooling degree days 1375 1364  
Growing Degree Days 30 (Base 50)    
Moisture  
Dew Point 77 °F    
Average Humidity 84    
Maximum Humidity 100    
Minimum Humidity 68    
Precipitation  
Precipitation T in 0.25 in 2.52 in (1972)
Month to date precipitation 0.80 5.11  
Year to date precipitation 27.01 32.78  
Sea Level Pressure  
Sea Level Pressure 30.01 in    
Wind  
Wind Speed 6 mph (ESE)    
Max Wind Speed 22 mph    
Max Gust Speed 25 mph    
Visibility 10 miles    
Events Rain    
T = Trace of Precipitation, MM = Missing Value Source: NWS Daily Summary

Daily Weather History Graph

Daily Weather History Graph

Search for Another Location

Airport or City:

Trip Planner

Search our weather history database for the weather conditions in past years. The results will help you decide how hot, cold, wet, or windy it might be!

Date:

Astronomy

Aug. 23, 2013 Rise Set
Actual Time 6:56 AM EDT 7:51 PM EDT
Civil Twilight 6:32 AM EDT 8:15 PM EDT
Nautical Twilight 6:03 AM EDT 8:44 PM EDT
Astronomical Twilight 5:34 AM EDT 9:13 PM EDT
Moon 9:32 PM EDT 9:29 AM EDT
Length of Visible Light 13h 43m
Length of Day
12h 55m
Waning Gibbous, 91% of the Moon is Illuminated
Aug 23
Waning Gibbous
Aug 28
Last Quarter
Sep 5
New
Sep 12
First Quarter
Sep 19
Full

Hourly Weather History & Observations

Time (EDT) Temp. Heat Index Dew Point Humidity Pressure Visibility Wind Dir Wind Speed Gust Speed Precip Events Conditions
12:53 AM 81.0 °F 87.9 °F 77.0 °F 88% 30.03 in 10.0 mi SE 6.9 mph - N/A   Clear
1:53 AM 80.1 °F 86.4 °F 78.1 °F 94% 30.01 in 10.0 mi South 3.5 mph - N/A   Scattered Clouds
2:04 AM 80.6 °F 87.1 °F 77.0 °F 89% 30.00 in 10.0 mi South 3.5 mph - N/A   Mostly Cloudy
2:11 AM 78.8 °F - 77.0 °F 94% 30.00 in 10.0 mi Calm Calm - N/A   Scattered Clouds
2:48 AM 78.8 °F - 77.0 °F 94% 29.99 in 10.0 mi Calm Calm - N/A   Mostly Cloudy
2:53 AM 78.1 °F - 77.0 °F 96% 29.99 in 10.0 mi Calm Calm - N/A   Mostly Cloudy
3:12 AM 77.0 °F - 77.0 °F 100% 29.98 in 10.0 mi Calm Calm - N/A   Scattered Clouds
3:53 AM 77.0 °F - 77.0 °F 100% 29.97 in 10.0 mi Calm Calm - N/A   Clear
4:53 AM 75.9 °F - 75.9 °F 100% 29.97 in 10.0 mi Calm Calm - N/A   Clear
5:53 AM 75.0 °F - 75.0 °F 100% 29.98 in 10.0 mi Calm Calm - N/A   Clear
6:53 AM 73.9 °F - 73.9 °F 100% 29.98 in 10.0 mi Calm Calm - N/A   Clear
7:53 AM 77.0 °F - 77.0 °F 100% 30.00 in 10.0 mi Calm Calm - N/A   Clear
8:53 AM 82.0 °F 91.6 °F 79.0 °F 90% 30.01 in 10.0 mi Calm Calm - N/A   Clear
9:53 AM 84.0 °F 93.7 °F 77.0 °F 79% 30.02 in 10.0 mi North 5.8 mph - N/A   Overcast
10:07 AM 84.2 °F 94.1 °F 77.0 °F 79% 30.02 in 10.0 mi North 8.1 mph - N/A   Overcast
10:53 AM 81.0 °F 87.3 °F 75.9 °F 85% 30.04 in 10.0 mi Variable 5.8 mph - N/A   Mostly Cloudy
11:19 AM 80.6 °F 87.1 °F 77.0 °F 89% 30.03 in 8.0 mi Calm Calm - 0.00 in Rain Light Rain
11:49 AM 80.6 °F 87.1 °F 77.0 °F 89% 30.04 in 10.0 mi WSW 4.6 mph - 0.00 in   Overcast
11:53 AM 79.0 °F - 77.0 °F 94% 30.04 in 10.0 mi WSW 4.6 mph - 0.00 in Rain Light Rain
12:29 PM 80.6 °F 87.1 °F 77.0 °F 89% 30.03 in 10.0 mi Calm Calm - 0.00 in Rain Light Rain
12:53 PM 84.9 °F 96.6 °F 78.1 °F 80% 30.03 in 10.0 mi ENE 8.1 mph - 0.00 in Rain Light Rain
1:53 PM 86.0 °F 96.9 °F 77.0 °F 74% 30.01 in 10.0 mi ENE 18.4 mph - 0.00 in   Scattered Clouds
2:53 PM 87.1 °F 97.3 °F 75.9 °F 69% 29.99 in 10.0 mi ESE 11.5 mph - N/A   Scattered Clouds
3:53 PM 86.0 °F 98.3 °F 78.1 °F 77% 29.99 in 10.0 mi ESE 13.8 mph - N/A   Partly Cloudy
4:53 PM 84.0 °F 92.6 °F 75.9 °F 76% 29.98 in 10.0 mi East 8.1 mph - N/A   Clear
5:53 PM 82.9 °F 90.2 °F 75.0 °F 77% 29.99 in 10.0 mi ESE 8.1 mph - N/A   Clear
6:53 PM 82.9 °F 91.8 °F 77.0 °F 82% 30.00 in 10.0 mi ESE 10.4 mph - N/A   Partly Cloudy
7:53 PM 82.0 °F 90.2 °F 77.0 °F 85% 30.00 in 10.0 mi ESE 6.9 mph - N/A   Partly Cloudy
8:53 PM 81.0 °F 87.9 °F 77.0 °F 88% 30.03 in 10.0 mi ESE 5.8 mph - N/A   Clear
9:53 PM 79.0 °F - 73.9 °F 84% 30.03 in 10.0 mi ESE 5.8 mph - N/A   Scattered Clouds
10:53 PM 79.0 °F - 73.0 °F 82% 30.03 in 10.0 mi East 4.6 mph - N/A   Scattered Clouds
11:53 PM 80.1 °F 85.4 °F 75.9 °F 87% 30.03 in 10.0 mi East 4.6 mph - N/A   Clear